Regional Weather Roundup
Issued by NWS Glasgow, MT

Current Version | Previous Version | Text Only | Print | Product List | Glossary On
Versions: 1 2 3 4 5 6 7 8 9 10 11 12 13 14 15 16 17 18 19 20 21 22 23 24 25 26 27 28 29 30 31 32 33 34 35 36 37 38 39 40 41 42 43 44 45 46 47 48 49 50
000
ASUS45 KGGW 180815
RWRGGW
HOURLY WEATHER ROUNDUP FOR NORTHEAST MONTANA
NATIONAL WEATHER SERVICE GLASGOW MONTANA
200 AM MDT SAT APR 18 2015

NOTE: "FAIR" INDICATES FEW OR NO CLOUDS BELOW 12,000 FEET WITH NO
SIGNIFICANT WEATHER AND/OR OBSTRUCTIONS TO VISISBILITY.

NORTHEAST MONTANA


CITY           SKY/WX    TMP DP  RH WIND       PRES   REMARKS
GLASGOW        CLEAR     43  28  55 E13       29.96S
PLENTYWOOD       N/A     41  27  57 E7G15       N/A
WOLF POINT     CLEAR     40  29  64 NE5       29.99F
JORDAN           N/A     47  30  51 CALM      29.97F
WINNETT          N/A     42  29  59 S2          N/A
SIDNEY         CLEAR     39  27  60 CALM      30.03F
GLENDIVE       CLEAR     41  27  56 W5        30.03F
MALTA            N/A     52  29  41 S12         N/A
SCOBEY           N/A     43  22  43 CALM      29.97F
OPHEIM           N/A     39  27  60 S5        29.82F

FORT PECK REPORTS


CITY           SKY/WX    TMP DP  RH WIND       PRES   REMARKS
FORT PECK        N/A     51  33  50 SE12        N/A
THE PINES        N/A     51  32  48 S6          N/A

SOUTHEAST MONTANA


CITY           SKY/WX    TMP DP  RH WIND       PRES   REMARKS
BILLINGS       CLEAR     43  34  70 SW9       29.99F
MILES CITY     CLEAR     48  30  49 S10       29.99F
BAKER          CLEAR     35  28  75 SE7       30.04F
LIVINGSTON     CLEAR     35  24  64 NW8       30.05S

CENTRAL MONTANA


CITY           SKY/WX    TMP DP  RH WIND       PRES   REMARKS
HAVRE          PTCLDY    49  32  52 W9        29.94R
LEWISTOWN      CLOUDY    43  28  55 S5        29.99S
GREAT FALLS    CLEAR     40  28  62 SW12      30.01R
CUT BANK       CLEAR     44  29  55 NE3       30.02R
HELENA         CLEAR     45  26  47 CALM      30.05R
BUTTE          CLEAR     33  27  78 S5        30.12R
BOZEMAN        CLEAR     32  25  75 SE7       30.07R

WESTERN MONTANA


CITY           SKY/WX    TMP DP  RH WIND       PRES   REMARKS
MISSOULA       CLEAR     44  30  57 W6        30.10R
KALISPELL      NOT AVBL

NORTH DAKOTA


CITY           SKY/WX    TMP DP  RH WIND       PRES   REMARKS
WILLISTON      CLEAR     48  27  44 SE7       30.05F
DICKINSON      CLEAR     41  26  55 E10       30.04F
MINOT          CLEAR     39  26  59 SE7       30.10F
BISMARCK       PTCLDY    38  27  64 CALM      30.11S

SOUTHERN SASKATCHEWAN


CITY           SKY/WX    TMP DP  RH WIND       PRES   REMARKS
REGINA         PTCLDY    45  30  57 SE23G30   29.97F
ESTEVAN        CLEAR     41  30  65 SE12G20   30.06
SWIFT CURRENT  PTCLDY    52  27  37 SW22G28   29.88R



USA.gov is the U.S. government's official web portal to all federal, state and local government web resources and services.